KD2BVA Weather Reports


Display with metric or nautical units.
time (UTC)temp
F
wind
direction
speed
MPH
gust
MPH
rain 1hr
in
rain 24hr
in
rain mn
in
humidity
%
barometer
mb
20260903053038 64 211 0.0 3.0 0.00 0.00 0.00 94 1000.4
20260903052548 64 278 1.0 4.0 0.00 0.00 0.00 94 1000.4
20260903052045 64 279 1.0 4.0 0.00 0.00 0.00 94 1000.4
20260903051604 64 288 0.0 2.0 0.00 0.00 0.00 94 1000.3
20260903051023 64 264 0.0 5.0 0.00 0.00 0.00 94 1000.5
20260903050535 64 51 1.0 5.0 0.00 0.00 0.00 94 1000.6
20260903050035 64 19 1.0 2.0 0.00 0.00 0.00 94 1000.6
20260903045524 64 338 0.0 4.0 0.00 0.00 0.00 93 1000.7
20260903045034 64 50 1.0 4.0 0.00 0.00 0.00 93 1000.5
20260903044531 64 276 0.0 1.0 0.00 0.00 0.00 94 1000.2
20260903044021 64 31 0.0 2.0 0.00 0.00 0.00 94 1000.1
20260903043524 64 43 0.0 4.0 0.00 0.00 0.00 94 1000.2
20260903043029 64 319 1.0 4.0 0.00 0.00 0.00 94 1000.3
20260903042536 64 26 0.0 2.0 0.00 0.00 0.00 94 1000.1
20260903042046 64 84 0.0 3.0 0.00 0.00 0.00 94 1000.2
20260903041524 64 88 0.0 3.0 0.00 0.00 0.00 93 1000.3
20260903041033 64 302 0.0 2.0 0.00 0.00 0.00 93 1000.5
20260903040545 64 103 0.0 2.0 0.00 0.00 0.00 94 1000.6
20260903040043 64 30 0.0 2.0 0.00 0.00 0.00 93 1000.6
20260903035532 64 351 0.0 2.0 0.00 0.00 0.00 93 1000.6
20260903035039 64 30 1.0 2.0 0.00 0.00 0.00 93 1000.6
20260903034547 64 47 0.0 3.0 0.00 0.00 0.00 92 1000.7
20260903034054 64 127 1.0 3.0 0.00 0.00 0.00 92 1000.8
20260903033603 64 20 0.0 3.0 0.00 0.00 0.00 92 1000.7
20260903033021 65 290 0.0 3.0 0.00 0.00 0.00 92 1000.8
20260903032531 65 136 0.0 5.0 0.00 0.00 0.00 91 1000.7
20260903032038 65 3 1.0 8.0 0.00 0.00 0.00 91 1000.7
20260903031539 65 48 1.0 3.0 0.00 0.00 0.00 91 1000.7
20260903031028 66 90 0.0 1.0 0.00 0.00 0.00 91 1000.9
20260903030540 66 312 0.0 1.0 0.00 0.00 0.00 90 1001.2
20260903030039 66 30 0.0 5.0 0.00 0.00 0.00 89 1001.4
20260903025548 66 29 1.0 5.0 0.00 0.00 0.00 88 1001.5
20260903025036 66 258 0.0 3.0 0.00 0.00 0.00 89 1001.5
20260903024546 66 274 1.0 3.0 0.00 0.00 0.00 89 1001.5
20260903024027 66 39 0.0 2.0 0.00 0.00 0.00 89 1001.6
20260903023555 66 338 1.0 3.0 0.00 0.00 0.00 89 1001.7
20260903023057 66 301 1.0 7.0 0.00 0.00 0.00 89 1001.6
20260903022544 66 342 1.0 7.0 0.00 0.00 0.00 89 1001.6
20260903022032 66 346 0.0 5.0 0.00 0.00 0.00 89 1001.6
20260903021532 66 89 2.0 8.0 0.00 0.00 0.00 89 1001.5
20260903021041 66 279 1.0 8.0 0.00 0.00 0.00 89 1001.6
20260903020551 66 340 1.0 5.0 0.00 0.00 0.00 89 1001.6
20260903020058 67 177 1.0 5.0 0.00 0.00 0.00 90 1001.7
20260903015545 67 5 0.0 5.0 0.00 0.00 0.00 90 1001.8
20260903015053 67 330 2.0 5.0 0.00 0.00 0.00 90 1002.0
20260903014520 67 36 0.0 3.0 0.00 0.00 0.00 90 1002.1
20260903014043 67 252 1.0 7.0 0.00 0.00 0.00 90 1002.3
20260903013526 67 347 1.0 7.0 0.00 0.00 0.00 90 1002.3
20260903013034 66 84 1.0 4.0 0.00 0.00 0.00 91 1002.4
20260903012542 66 304 0.0 2.0 0.00 0.00 0.00 90 1002.5
20260903012050 66 49 1.0 3.0 0.00 0.00 0.00 90 1002.6
20260903011601 66 73 1.0 3.0 0.00 0.00 0.00 90 1002.5
20260903011021 66 169 0.0 4.0 0.00 0.00 0.00 90 1002.6
20260903010553 66 331 1.0 4.0 0.00 0.00 0.00 90 1002.6
20260903010059 66 108 0.0 3.0 0.00 0.00 0.00 90 1002.4
20260903005546 66 353 1.0 3.0 0.00 0.00 0.00 91 1002.5
20260903005050 66 261 0.0 3.0 0.00 0.00 0.00 92 1002.4
20260903004538 66 344 1.0 3.0 0.00 0.00 0.00 92 1002.4
20260903004048 66 1 0.0 1.0 0.00 0.00 0.00 92 1002.5
20260903003530 66 1 0.0 1.0 0.00 0.00 0.00 92 1002.6
20260903003038 66 228 0.0 2.0 0.00 0.00 0.00 92 1002.6
20260903002548 66 276 0.0 1.0 0.00 0.00 0.00 93 1002.5
20260903002047 66 214 0.0 1.0 0.00 0.00 0.00 93 1002.2
20260903001536 66 214 0.0 1.0 0.00 0.00 0.00 93 1002.1
20260903001046 66 214 0.0 2.0 0.00 0.00 0.00 93 1002.2
20260903000529 66 117 0.0 2.0 0.00 0.00 0.00 93 1002.0
20260903000033 66 49 0.0 1.0 0.00 0.00 0.00 93 1001.8
20260902235543 66 49 0.0 1.0 0.00 0.00 0.00 92 1001.6
20260902235051 66 49 0.0 1.0 0.00 0.00 0.00 92 1001.7
20260902234602 66 49 0.0 1.0 0.00 0.00 0.00 93 1001.5
20260902234034 66 49 0.0 1.0 0.00 0.00 0.00 92 1001.7
20260902233526 66 282 0.0 3.0 0.00 0.00 0.00 92 1001.6
20260902233025 66 281 0.0 3.0 0.00 0.00 0.00 92 1001.4
20260902232535 66 267 0.0 3.0 0.00 0.00 0.00 92 1001.2
20260902232025 67 333 0.0 3.0 0.00 0.00 0.00 91 1001.1
20260902231533 67 329 0.0 2.0 0.00 0.00 0.00 91 1001.4
20260902231041 67 346 0.0 2.0 0.00 0.00 0.00 91 1001.5
20260902230524 67 155 0.0 1.0 0.00 0.00 0.00 91 1001.8
20260902230031 67 158 0.0 1.0 0.00 0.00 0.00 91 1002.1
20260902225541 67 158 0.0 2.0 0.00 0.00 0.00 91 1002.5
20260902225051 68 113 0.0 2.0 0.00 0.00 0.00 90 1002.8
20260902224602 68 111 0.0 2.0 0.00 0.00 0.00 90 1003.0
20260902224039 68 299 0.0 1.0 0.00 0.00 0.00 90 1003.0
20260902223544 68 265 0.0 2.0 0.00 0.00 0.00 90 1003.2
20260902223050 68 83 0.0 2.0 0.00 0.00 0.00 90 1003.4
20260902222538 68 3 0.0 1.0 0.00 0.00 0.00 90 1003.4
20260902222048 69 3 0.0 1.0 0.00 0.00 0.00 89 1003.6
20260902221528 69 11 0.0 2.0 0.00 0.00 0.00 90 1003.7
20260902221037 69 335 1.0 2.0 0.00 0.00 0.00 89 1003.6
20260902220717 69 77 0.0 1.0 0.00 0.00 0.00 90 1003.7
20260902220032 70 77 0.0 2.0 0.00 0.00 0.00 90 1003.7
20260902215521 70 77 0.0 2.0 0.00 0.00 0.00 89 1003.6
20260902215046 70 295 0.0 2.0 0.00 0.00 0.00 89 1003.6
20260902214527 70 322 0.0 1.0 0.00 0.00 0.00 89 1003.7
20260902214035 70 85 0.0 1.0 0.00 0.00 0.00 89 1003.8
20260902213548 70 84 0.0 4.0 0.00 0.00 0.00 90 1003.7
20260902213043 70 85 0.0 4.0 0.00 0.00 0.00 89 1003.7
20260902212531 70 43 0.0 1.0 0.00 0.00 0.00 89 1003.7
20260902212040 70 56 0.0 1.0 0.00 0.00 0.00 90 1003.7
20260902211521 70 300 0.0 0.0 0.00 0.00 0.00 90 1003.8
20260902211028 70 301 0.0 1.0 0.00 0.00 0.00 90 1003.9
20260902210536 70 301 0.0 1.0 0.00 0.00 0.00 88 1003.9
20260902210023 70 26 0.0 1.0 0.00 0.00 0.00 88 1003.9
20260902205533 70 255 0.0 1.0 0.00 0.00 0.00 89 1003.8
20260902205030 70 255 0.0 0.0 0.00 0.00 0.00 88 1003.8
20260902204520 70 255 0.0 2.0 0.00 0.00 0.00 87 1003.7
20260902204045 70 248 1.0 2.0 0.00 0.00 0.00 87 1003.8
20260902203553 70 121 0.0 1.0 0.00 0.00 0.00 88 1003.7
20260902203030 70 322 0.0 2.0 0.00 0.00 0.00 87 1003.8
20260902202538 70 251 0.0 2.0 0.00 0.00 0.00 87 1004.0
20260902202048 70 321 0.0 2.0 0.00 0.00 0.00 88 1003.8
20260902201536 70 321 1.0 2.0 0.00 0.00 0.00 86 1003.9
20260902201045 70 222 0.0 1.0 0.00 0.00 0.00 86 1004.1
20260902200546 71 319 0.0 2.0 0.00 0.00 0.00 87 1004.1
20260902200103 71 282 1.0 2.0 0.00 0.00 0.00 86 1004.1
20260902195606 70 292 0.0 1.0 0.00 0.00 0.00 87 1003.9
20260902195044 70 292 0.0 1.0 0.00 0.00 0.00 87 1004.1
20260902194552 70 300 0.0 1.0 0.00 0.00 0.00 86 1004.0
20260902194020 70 285 0.0 1.0 0.00 0.00 0.00 86 1003.9
20260902193530 70 295 0.0 1.0 0.00 0.00 0.00 87 1004.0
20260902193037 70 347 0.0 1.0 0.00 0.00 0.00 87 1004.0
20260902192538 70 347 0.0 1.0 0.00 0.00 0.00 87 1004.1
20260902192026 70 23 0.0 1.0 0.00 0.00 0.00 85 1004.2
20260902191532 70 279 0.0 1.0 0.00 0.00 0.00 87 1004.2
20260902191033 70 291 0.0 2.0 0.00 0.00 0.00 87 1004.3
20260902190544 70 274 0.0 2.0 0.00 0.00 0.00 88 1004.3
20260902190050 69 267 0.0 0.0 0.00 0.00 0.00 90 1004.3
20260902185534 69 267 0.0 0.0 0.00 0.00 0.00 90 1004.6
20260902185044 68 268 0.0 0.0 0.00 0.00 0.00 92 1004.5
20260902184523 68 268 0.0 1.0 0.00 0.00 0.00 91 1004.4
20260902184032 68 268 0.0 1.0 0.00 0.00 0.00 90 1004.6
20260902183543 68 257 0.0 1.0 0.00 0.00 0.00 90 1004.7
20260902183042 68 257 0.0 2.0 0.00 0.00 0.00 90 1004.8
20260902182528 68 257 0.0 2.0 0.00 0.00 0.00 90 1004.9
20260902182029 68 270 0.0 1.0 0.00 0.00 0.00 89 1004.9
20260902181538 69 270 0.0 1.0 0.00 0.00 0.00 89 1005.0
20260902181028 69 270 0.0 1.0 0.00 0.00 0.00 88 1004.9
20260902180528 69 269 0.0 1.0 0.00 0.00 0.00 89 1004.9
20260902180036 69 269 0.0 1.0 0.00 0.00 0.00 87 1004.8
20260902175545 70 269 0.0 1.0 0.00 0.00 0.00 88 1004.8
20260902175024 70 266 0.0 1.0 0.00 0.00 0.00 88 1004.8
20260902174533 70 265 0.0 1.0 0.00 0.00 0.00 89 1004.8
20260902174042 70 39 0.0 1.0 0.00 0.00 0.00 90 1004.8
20260902173524 69 51 0.0 1.0 0.00 0.00 0.00 90 1004.7
20260902173032 69 34 0.0 2.0 0.00 0.00 0.00 91 1004.7
20260902172538 68 50 0.0 2.0 0.00 0.00 0.00 88 1004.6
20260902172038 68 296 0.0 2.0 0.00 0.00 0.00 91 1004.6
20260902171528 67 231 0.0 2.0 0.00 0.00 0.00 91 1004.6
20260902171028 67 7 0.0 1.0 0.00 0.00 0.00 90 1004.7
20260902170540 68 42 0.0 1.0 0.00 0.00 0.00 91 1004.8
20260902170027 68 41 0.0 2.0 0.00 0.04 0.00 90 1005.0
20260902165528 68 84 0.0 2.0 0.00 0.04 0.00 89 1005.0
20260902165038 69 260 0.0 3.0 0.00 0.04 0.00 91 1005.0
20260902164527 69 212 0.0 5.0 0.00 0.04 0.00 91 1004.8
20260902164055 69 210 1.0 5.0 0.00 0.04 0.00 92 1004.8
20260902163608 68 352 0.0 2.0 0.00 0.04 0.00 93 1004.9
20260902163033 68 269 0.0 2.0 0.00 0.04 0.00 94 1005.2
20260902162533 68 295 1.0 2.0 0.00 0.04 0.00 95 1005.0
20260902162042 68 303 0.0 1.0 0.00 0.04 0.00 99 1005.0
20260902161520 68 268 0.0 2.0 0.00 0.04 0.00 99 1005.2
20260902161025 68 268 0.0 2.0 0.00 0.04 0.00 99 1005.2
20260902160537 68 271 0.0 1.0 0.00 0.04 0.00 99 1005.2
20260902160045 68 278 0.0 1.0 0.00 0.06 0.00 100 1005.1
20260902155524 67 278 0.0 1.0 0.00 0.06 0.00 100 1005.2
20260902155045 67 278 0.0 1.0 0.00 0.06 0.00 100 1005.2
20260902154523 67 278 0.0 1.0 0.00 0.06 0.00 100 1005.4
20260902154033 67 34 0.0 1.0 0.00 0.06 0.00 100 1005.4
20260902153536 67 323 0.0 1.0 0.00 0.06 0.00 100 1005.5
20260902153023 67 69 0.0 2.0 0.00 0.06 0.00 100 1005.7
20260902152532 67 13 0.0 3.0 0.00 0.06 0.00 100 1005.7
20260902152032 67 275 1.0 3.0 0.00 0.06 0.00 100 1005.8
20260902151521 66 269 1.0 3.0 0.00 0.06 0.00 100 1005.8
20260902151022 67 286 1.0 3.0 0.00 0.06 0.00 100 1005.9
20260902150533 66 287 0.0 1.0 0.00 0.06 0.00 100 1005.9
20260902150021 66 292 0.0 3.0 0.00 0.18 0.00 100 1005.8
20260902145521 66 292 0.0 3.0 0.00 0.18 0.00 100 1005.8
20260902145027 66 304 0.0 2.0 0.00 0.18 0.00 100 1005.8
20260902144536 66 276 0.0 1.0 0.00 0.18 0.00 100 1005.9
20260902144045 66 274 0.0 2.0 0.00 0.18 0.00 100 1005.9
20260902143524 66 10 0.0 2.0 0.00 0.18 0.00 100 1005.9
20260902143032 66 302 0.0 2.0 0.00 0.18 0.00 100 1006.0
20260902142543 65 98 0.0 2.0 0.00 0.18 0.00 100 1006.0
20260902142048 65 245 0.0 2.0 0.00 0.18 0.00 100 1006.0
20260902141525 65 267 0.0 2.0 0.00 0.18 0.00 100 1005.9
20260902141034 65 3 0.0 1.0 0.00 0.18 0.00 100 1005.9
20260902140546 65 3 0.0 2.0 0.00 0.18 0.00 100 1005.8
20260902140048 65 317 0.0 2.0 0.00 0.18 0.00 100 1005.9
20260902135547 65 290 0.0 1.0 0.00 0.18 0.00 100 1005.6
20260902135036 65 290 0.0 2.0 0.00 0.18 0.00 100 1005.6
20260902134542 64 166 0.0 2.0 0.00 0.18 0.00 100 1005.7
20260902134022 64 268 1.0 2.0 0.00 0.18 0.00 100 1005.7
20260902133534 64 309 0.0 3.0 0.00 0.18 0.00 100 1005.7
20260902133042 64 309 0.0 3.0 0.00 0.18 0.00 100 1005.8
20260902132523 64 285 0.0 2.0 0.00 0.18 0.00 100 1005.7
20260902132032 65 48 0.0 1.0 0.00 0.18 0.00 100 1005.7
20260902131542 65 49 0.0 1.0 0.00 0.18 0.00 100 1005.7
20260902131023 65 49 0.0 1.0 0.00 0.18 0.00 100 1005.5
20260902130535 65 49 0.0 1.0 0.00 0.18 0.00 100 1005.3
20260902130031 65 48 0.0 2.0 0.00 0.20 0.00 100 1005.2
20260902125519 65 48 0.0 2.0 0.00 0.20 0.00 100 1005.1
20260902125029 65 252 0.0 1.0 0.00 0.20 0.00 100 1005.1
20260902124557 65 252 0.0 1.0 0.00 0.20 0.00 100 1005.0
20260902124108 65 252 0.0 1.0 0.00 0.20 0.00 100 1005.1
20260902123529 64 252 0.0 1.0 0.00 0.20 0.00 100 1005.1
20260902123037 64 252 0.0 1.0 0.00 0.20 0.00 100 1005.2
20260902122542 64 252 0.0 1.0 0.00 0.20 0.00 100 1005.1
20260902122022 64 252 0.0 1.0 0.00 0.20 0.00 100 1005.2
20260902121531 64 252 0.0 1.0 0.00 0.20 0.00 100 1005.2
20260902121041 64 259 0.0 1.0 0.00 0.20 0.00 100 1005.2
20260902120524 64 259 0.0 1.0 0.00 0.20 0.00 100 1005.1
20260902120031 64 259 0.0 1.0 0.00 0.22 0.00 100 1005.1
20260902115532 65 258 0.0 0.0 0.00 0.22 0.00 100 1005.0
20260902115021 65 258 0.0 0.0 0.00 0.22 0.00 100 1005.0
20260902114549 64 258 0.0 0.0 0.00 0.22 0.00 100 1004.8
20260902114100 64 258 0.0 0.0 0.00 0.22 0.00 100 1005.0
20260902113521 64 258 0.0 0.0 0.00 0.22 0.00 100 1004.9
20260902113036 64 258 0.0 0.0 0.00 0.22 0.00 100 1004.9
20260902112545 64 258 0.0 2.0 0.00 0.22 0.00 100 1005.0
20260902112026 64 258 0.0 2.0 0.00 0.22 0.00 100 1005.2
20260902111531 64 278 0.0 1.0 0.00 0.22 0.00 100 1005.2
20260902111038 64 297 0.0 1.0 0.00 0.22 0.00 100 1005.3
20260902110539 64 297 0.0 0.0 0.00 0.22 0.00 100 1005.3
20260902110028 64 297 0.0 0.0 0.00 0.39 0.00 100 1005.2
20260902105528 64 297 0.0 1.0 0.00 0.39 0.00 100 1005.3
20260902105037 64 297 0.0 1.0 0.00 0.39 0.00 100 1005.3
20260902104546 64 62 0.0 0.0 0.00 0.39 0.00 100 1005.3
20260902104035 64 63 0.0 0.0 0.00 0.39 0.00 100 1005.1
20260902103537 64 63 0.0 0.0 0.00 0.39 0.00 100 1005.1
20260902103025 64 63 0.0 0.0 0.00 0.39 0.00 100 1005.1
20260902102535 64 63 0.0 1.0 0.00 0.39 0.00 100 1005.0
20260902102035 64 63 0.0 1.0 0.00 0.39 0.00 100 1005.0
20260902101524 64 62 0.0 0.0 0.00 0.39 0.00 100 1005.0
20260902101035 64 62 0.0 0.0 0.00 0.39 0.00 100 1004.9
20260902100535 64 63 0.0 0.0 0.00 0.39 0.00 100 1004.9
20260902100024 64 63 0.0 0.0 0.00 0.54 0.00 100 1004.9
20260902095524 64 63 0.0 0.0 0.00 0.54 0.00 100 1004.8
20260902095029 64 63 0.0 0.0 0.00 0.54 0.00 100 1004.8
20260902094520 64 63 0.0 0.0 0.00 0.54 0.00 100 1004.8
20260902094048 64 63 0.0 0.0 0.00 0.54 0.00 100 1004.7
20260902093531 64 63 0.0 0.0 0.00 0.54 0.00 100 1004.7
20260902093037 64 63 0.0 0.0 0.00 0.54 0.00 100 1004.7
20260902092547 64 63 0.0 0.0 0.00 0.54 0.00 100 1004.6
20260902092027 64 63 0.0 0.0 0.00 0.54 0.00 100 1004.7
20260902091536 64 63 0.0 0.0 0.00 0.54 0.00 100 1004.5
20260902091037 64 63 0.0 0.0 0.00 0.54 0.00 100 1004.4
20260902090528 64 63 0.0 0.0 0.00 0.54 0.00 100 1004.5
20260902090036 64 63 0.0 0.0 0.00 0.55 0.00 100 1004.5
20260902085537 64 63 0.0 0.0 0.00 0.55 0.00 100 1004.6
20260902085025 64 63 0.0 1.0 0.00 0.55 0.00 100 1004.6
20260902084526 64 62 0.0 0.0 0.00 0.55 0.00 100 1004.6
20260902084035 64 62 0.0 1.0 0.00 0.55 0.00 100 1004.6
20260902083526 64 63 0.0 2.0 0.00 0.55 0.00 100 1004.6
20260902083025 64 344 0.0 2.0 0.00 0.55 0.00 100 1004.6
20260902082534 64 304 0.0 1.0 0.00 0.55 0.00 100 1004.5
20260902082025 64 302 0.0 1.0 0.00 0.55 0.00 100 1004.4
20260902081549 64 141 0.0 1.0 0.00 0.55 0.00 100 1004.4
20260902081048 64 141 0.0 0.0 0.00 0.55 0.00 100 1004.5
20260902080557 64 141 0.0 0.0 0.00 0.55 0.00 100 1004.5
20260902080042 64 141 0.0 2.0 0.00 0.55 0.00 100 1004.6
20260902075530 64 141 0.0 2.0 0.00 0.55 0.00 100 1004.4
20260902075040 64 269 0.0 1.0 0.00 0.55 0.00 100 1004.2
20260902074541 64 269 0.0 1.0 0.00 0.55 0.00 100 1004.3
20260902074027 64 268 0.0 1.0 0.00 0.55 0.00 100 1004.3
20260902073539 64 66 0.0 1.0 0.00 0.55 0.00 100 1004.2
20260902073038 64 66 0.0 1.0 0.00 0.55 0.00 100 1004.1
20260902072527 64 304 0.0 1.0 0.00 0.55 0.00 100 1004.2
20260902072027 64 304 0.0 1.0 0.00 0.55 0.00 100 1004.2
20260902071537 64 282 0.0 1.0 0.00 0.55 0.00 100 1004.4
20260902071041 64 123 0.0 0.0 0.00 0.55 0.00 100 1004.3
20260902070532 64 124 0.0 1.0 0.00 0.55 0.00 100 1004.3
20260902070030 64 124 0.0 1.0 0.00 0.55 0.00 100 1004.4
20260902065539 64 117 0.0 0.0 0.00 0.55 0.00 100 1004.6
20260902065028 64 117 0.0 0.0 0.00 0.55 0.00 100 1004.4
20260902064529 64 117 0.0 0.0 0.00 0.55 0.00 100 1004.3
20260902064039 64 117 0.0 0.0 0.00 0.55 0.00 100 1004.3
20260902063522 64 117 0.0 0.0 0.00 0.55 0.00 100 1004.4
20260902063030 64 117 0.0 0.0 0.00 0.55 0.00 100 1004.4
20260902062519 64 117 0.0 1.0 0.00 0.55 0.00 100 1004.5
20260902062046 64 117 0.0 1.0 0.00 0.55 0.00 100 1004.5
20260902061526 64 117 0.0 0.0 0.00 0.55 0.00 100 1004.6
20260902061036 64 117 0.0 0.0 0.00 0.55 0.00 100 1004.6
20260902060548 64 117 0.0 0.0 0.00 0.55 0.00 100 1004.5
20260902060026 64 117 0.0 0.0 0.00 0.55 0.00 100 1004.5
20260902055535 64 117 0.0 2.0 0.00 0.55 0.00 100 1004.3
20260902055035 64 117 0.0 2.0 0.00 0.55 0.00 100 1004.3
20260902054524 65 277 0.0 0.0 0.00 0.55 0.00 100 1004.3
20260902054029 65 277 0.0 0.0 0.00 0.55 0.00 100 1004.3
20260902053537 65 277 0.0 0.0 0.00 0.55 0.00 100 1004.2